Reflectivity
-20 -20 -20 -20 -20 -20 -20 -20 -20 -20 -20 -20 -20 -20 -20 -20 -20 -20 -20 -20 -20 -20 -20 -20 -20 -20 -20 -20 -20 -20 -20 -20 -20 -20 -20 -20 -20 -20 -20 -20 -20 -20 -20 -20 -20 -20 -20 -20 -20
-20 -20 -20 -20 -20 -20 -20 -20 -20 -20 -20 -20 -20 -20 -20 -20 -20 -20 -20 -20 -20 -20 -20 -20 -20 -20 -20 -20 -20 -20 -20 -20 -20 -20 -20 -20 -20 -20 -20 -20 -20 -20 -20 -20 -20 -20 -20 -20 -20
-20 -20 -20 -20 -20 -20 -20 -20 -20 -20 -20 -20 -20 -20 -20 -20 -20 -20 -20 -20 -20 -20 -20 -20 -20 -20 -20 -20 -20 -20 -20 -20 -20 -20 -20 -20 -20 -20 -20 -20 -20 -20 -20 -20 -20 -20 -20 -20 -20
-20 -20 -20 -20 -20 -20 -20 -20 -20 -20 -20 -20 -20 -20 -20 -20 -20 -20 -20 -20 -20 -20 -20 -20 -20 -20 -20 -20 -20 -20 -20 -20 -20 -20 -20 -20 -20 -20 -20 -20 -20 -20 -20 -20 -20 -20 -20 -20 -20
-20 -20 -20 -20 -20 -20 -20 -20 -20 -20 -20 -20 -20 -20 -20 -20 -20 -20 -20 -20 -20 -20 -20 -20 -20 -20 -20 -20 -20 -20 -20 -20 -20 -20 -20 -20 -20 -20 -20 -20 -20 -20 -20 -20 -20 -20 -20 -20 -20
-20 -20 -20 -20 -20 -20 -20 -20 -20 -20 -20 -20 -20 -20 -20 -20 -20 -20 -20 -20 -20 -20 -20 -20 -20 -20 -20 -20 -20 -20 -20 -20 -20 -20 -20 -20 -20 -20 -20 -20 -20 -20 -20 -20 -20 -20 -20 -20 -20
-20 -20 -20 -20 -20 -20 -20 -20 -20 -20 -20 -20 -20 -20 -20 -20 -20 -20 -20 -20 -20 -20 -20 -20 -20 -20 -20 -20 -20 -20 -20 -20 -20 -20 -20 -20 -20 -20 -20 -20 -20 -20 -20 -20 -20 -20 -20 -20 -20
-20 -20 -20 -20 -20 -20 -20 -20 -20 -20 -20 -20 -20 -20 -20 -20 -20 -20 -20 -20 -20 -20 -20 -20 -20 -20 -20 -20 -20 -20 -20 -20 -20 -20 -20 -20 -20 -20 -20 -20 -20 -20 -20 -20 -20 -20 -20 -20 -20
-20 -20 -20 -20 -20 -20 -20 -20 -20 -20 -20 -20 -20 -20 -20 -20 -20 -20 -20 -20 -20 -20 -20 -20 -20 -20 -20 -20 -20 -20 -20 -20 -20 -20 -20 -20 -20 -20 -20 -20 -20 -20 -20 -20 -20 -20 -20 -20 -20
-20 -20 -20 -20 -20 -20 -20 -20 -20 -20 -20 -20 -20 -20 -20 -20 -20 -20 -20 -20 -20 -20 -20 -20 -20 -20 -20 -20 -20 -20 -20 -20 -20 -20 -20 -20 -20 -20 -20 -20 -20 -20 -20 -20 -20 -20 -20 -20 -20
-20 -20 -20 -20 -20 -20 -20 -20 -20 -20 -20 -20 -20 -20 -20 -20 -20 -20 -20 -20 -20 -20 -20 -20 -20 -20 -20 -20 -20 -20 -20 -20 -20 -20 -20 -20 -20 -20 -20 -20 -20 -20 -20 -20 -20 -20 -20 -20 -20
-20 -20 -20 -20 -20 -20 -20 -20 -20 -20 -20 -20 -20 -20 -20 -20 -20 -20 -20 -20 -20 -20 -20 -20 -20 -20 -20 -20 -16 -20 -20 -20 -20 -19 -6 -3 2 -20 -20 -20 -20 -20 -20 -20 -20 -20 -20 -20 -20
-20 -20 -20 -20 -20 -20 -20 -20 -20 -17 -14 -20 -20 -20 -20 -20 -20 -20 -20 -20 -20 -20 -20 -20 -20 -20 -20 1 -20 -20 -20 4 11 10 5 -6 -4 -20 -20 -20 -18 -20 -20 -20 -20 -20 -20 -20 -20
-20 -20 -20 -20 -20 -20 -20 -20 -20 -18 -20 -20 -20 -20 -20 -20 -20 -20 -20 -20 -20 -20 -20 -20 -5 4 -20 -20 -20 -20 -15 9 26 23 6 5 -20 -20 -20 -20 -4 -19 -20 -20 -20 -20 -20 -20 -20
-20 -20 -20 -20 -20 -20 -20 -20 -20 -20 -20 -20 -20 -20 -20 -20 -20 -20 -20 -20 -20 -20 -20 -20 -20 -20 -20 -20 -20 -20 -20 34 27 32 15 -16 -16 -20 32 21 1 12 -10 -20 -20 -20 9 -20 -20
-20 -20 -20 -20 -20 -20 -20 -20 -20 -20 -20 -20 -20 -20 -20 -20 -20 -20 -20 -20 -20 -20 -20 -20 -20 -20 -20 -20 -20 -20 -20 16 12 28 35 39 35 26 18 26 10 16 30 29 13 17 12 12 12
-20 -20 -20 -20 -20 -20 -17 -20 -20 -20 -20 -20 -20 -20 -20 -20 -20 -20 -20 -20 -20 -20 -20 -20 -20 -20 -20 -20 -20 -20 -20 -20 -20 -20 -20 -15 29 29 26 29 15 -0 26 28 19 29 -6 -10 2
-20 -20 -20 -20 -20 -20 -20 -20 -20 -20 -20 -20 -20 -20 -20 -20 -20 -20 -20 -20 -20 -20 -20 -20 -20 -20 -20 -20 -20 -20 -20 -20 -20 -20 -20 -20 -20 -20 -20 20 19 36 37 31 27 7 12 -12 18
-20 -20 -20 -20 -20 -20 -20 -20 -20 -20 -20 -20 -20 -20 -20 -20 -20 -20 -20 -20 -20 -20 -20 -20 -20 -20 -20 -20 -20 -20 -20 -20 -20 -20 -20 -20 -20 -20 -20 -20 -3 31 42 33 17 30 31 33 18
-20 -20 -20 -20 -20 -20 -20 -20 -20 -20 -20 -20 -20 -20 -20 -20 -20 -20 -20 -20 -20 -20 -20 -20 -20 -20 -20 -20 -20 -20 -20 -20 -20 -20 -20 -20 -20 -20 -20 -20 -20 -0 34 37 33 31 27 19 29
-20 -20 -20 -20 -20 -20 -20 -20 -20 -20 -20 -20 -20 -20 -20 -20 -20 -20 -20 -20 -20 -13 -20 -20 -20 -20 -20 -20 -20 -20 -20 -20 -20 -20 -20 -20 -20 -20 -20 -20 -20 -20 18 30 39 26 41 27 25
-20 -20 -20 -20 -20 -20 -20 -16 -20 -20 -20 -20 -20 -20 -20 -20 -20 -20 -20 -20 -12 1 -10 -20 -20 -20 -20 -20 -20 -20 -20 -20 -20 -20 -20 -20 -20 -20 -20 -20 -20 -20 -20 -20 -20 -12 -2 34 24
-20 -20 -20 -20 -20 -20 -20 -20 -20 -20 -20 -20 -20 -20 -20 -20 -20 -20 -20 -20 -16 -10 -10 0 -20 -20 -20 -20 -20 -20 -20 -20 -20 -20 -20 -20 -20 -20 -20 -20 -20 -20 -20 -20 -20 -20 -15 2 -0
-20 -20 -20 -20 -20 -2 -20 -20 -20 -20 -18 -20 -20 -20 -20 -20 -20 -20 -20 -3 13 11 -1 -20 -20 -20 -20 -20 -20 -20 -20 -20 -20 -20 -20 -20 -20 -20 -20 -20 -20 -20 -20 -20 -20 -19 -14 3 7
-20 -20 6 -20 -20 -20 -20 -20 -20 -8 -20 -20 -20 -20 -20 17 13 -11 -12 -3 6 1 -18 -1 7 6 -20 -20 -20 -20 -20 -20 -20 -20 -20 -20 -20 -20 -20 -20 -20 -20 -20 -20 -20 -20 -20 -20 8
-20 -18 -15 -20 -20 -20 -20 -20 -20 -20 -20 -20 -20 -20 17 26 32 31 32 36 11 1 3 12 3 -16 -20 -20 -20 -20 -20 -20 -20 -20 -20 -20 -20 -20 -20 -20 -20 -20 -20 -20 -20 -20 -20 -20 -20
-20 -20 -20 21 -20 -20 -20 -20 -17 6 -20 -20 -20 -20 -20 15 26 17 12 4 32 28 23 23 20 8 -3 -15 -20 -20 -20 -20 -20 -20 -20 -20 -20 -20 -20 -20 -20 -9 -20 -20 -20 1 16 -8 -20
-20 -20 -20 -20 -20 -20 -20 -20 -20 2 8 -16 -3 -20 -20 -8 -18 3 -20 11 12 4 -13 -6 17 20 16 7 8 3 -20 -18 -20 -16 -20 -20 -7 -20 -9 -20 -20 -20 -20 -6 -15 -14 14 14 -14
-20 -20 -20 -20 -20 -20 -20 -20 -20 -20 -20 -20 -19 -20 -20 -20 -20 -20 -20 -9 -14 -16 -20 -19 -20 -20 -20 -18 -8 -20 -20 -20 -20 -16 -8 -6 -11 -20 -20 -20 -7 -20 -20 -13 -20 -19 -11 1 1
-20 -20 -20 -20 -20 -20 -20 -20 -20 -20 -20 -20 -20 -20 -20 -20 -20 -20 -20 -20 -20 -20 -20 -20 -16 -20 -20 -20 -20 -13 -3 -20 -12 2 0 -1 -11 -7 1 -20 -20 -20 -20 -20 -20 -20 -17 -20 -20
Wind_Speed
6 4 1 5 5 6 4 6 3 8 6 3 3 3 7 3 4 5 3 4 6 9 7 10 11 11 10 7 8 12 14 15 16 16 16 16 17 17 16 16 15 13 14 16 15 14 13 11 9
4 1 5 3 6 3 6 5 4 4 6 10 4 2 4 2 1 3 2 5 7 10 8 7 9 11 11 9 7 8 12 14 14 15 16 16 17 17 17 16 14 14 14 15 14 13 12 10 8
1 3 4 5 4 4 4 3 7 16 8 3 3 4 2 1 2 2 2 8 8 8 9 9 11 10 11 11 9 7 8 12 13 13 14 15 16 17 17 15 14 14 13 13 13 11 10 9 8
3 5 5 5 4 6 5 7 7 9 6 4 1 5 3 3 1 3 3 7 7 6 8 9 13 13 12 12 11 10 9 9 11 12 13 14 15 16 16 14 14 14 14 13 13 13 12 11 10
5 4 3 0 4 4 5 7 7 6 6 6 6 2 2 6 5 3 5 7 7 6 5 8 10 10 12 13 13 12 11 10 11 11 12 12 13 14 15 14 14 14 14 13 11 11 11 10 10
4 4 3 4 4 2 6 5 6 7 6 7 8 2 2 3 3 3 3 7 7 9 7 7 10 9 9 9 10 10 10 10 10 10 11 13 12 13 14 14 13 11 11 10 11 11 10 10 10
5 5 3 4 3 2 1 7 6 6 7 6 6 2 4 5 7 6 5 5 6 6 6 6 8 10 12 12 10 10 10 11 10 11 11 12 12 11 13 13 14 13 12 11 10 10 10 10 9
5 5 0 4 3 3 3 2 4 7 7 9 1 1 3 6 3 2 2 3 3 3 5 5 4 5 5 6 11 12 11 11 12 12 13 13 13 12 12 12 12 12 13 11 11 11 11 10 10
3 4 2 5 3 3 2 7 5 4 4 5 3 2 7 4 1 4 2 1 1 2 3 4 4 4 5 4 5 7 11 12 11 10 10 9 6 7 8 10 11 12 11 11 11 11 10 9 9
4 4 9 5 3 5 4 4 5 5 7 6 5 3 1 2 3 3 4 5 4 4 5 5 6 6 4 3 4 4 4 5 6 5 4 4 4 4 6 7 11 12 12 11 10 9 9 8 4
3 5 5 6 7 7 6 5 3 4 8 7 8 8 6 4 5 6 7 8 7 4 3 7 6 6 7 5 3 2 3 4 5 7 6 8 6 4 4 2 4 5 9 5 6 6 4 6 4
3 5 3 5 5 6 9 7 4 9 13 6 8 9 5 11 8 9 10 9 2 4 6 7 8 7 6 3 3 3 3 3 5 6 7 6 4 6 6 5 4 3 3 6 6 4 7 6 6
5 4 5 8 9 6 8 9 12 12 13 8 9 10 12 11 11 9 9 3 4 3 2 1 5 5 5 5 3 3 3 4 4 4 7 6 6 8 6 6 4 4 4 5 6 7 8 9 7
3 6 7 6 12 7 10 6 2 8 9 9 9 12 12 10 12 6 8 5 6 6 7 7 7 3 4 3 1 2 3 3 1 1 3 6 4 5 5 5 5 5 6 5 6 8 9 8 7
6 6 5 6 8 6 4 6 6 8 7 10 12 13 10 10 9 13 5 8 8 7 7 8 8 7 7 6 5 3 2 3 3 2 4 4 6 5 5 5 5 6 5 7 5 5 5 6 5
6 3 2 6 5 5 2 4 8 10 14 10 11 12 12 13 9 5 8 6 5 8 9 9 7 9 8 7 5 4 5 4 3 2 4 7 9 5 3 2 5 3 4 5 7 8 8 8 8
3 3 4 6 6 6 2 9 5 11 9 13 11 12 12 9 11 7 8 8 8 8 9 11 10 11 9 7 5 5 7 5 4 4 5 6 8 9 4 6 5 2 3 4 6 7 8 7 8
5 4 3 2 7 13 17 22 14 8 7 9 9 10 8 9 11 12 14 12 11 10 11 11 10 11 8 5 4 4 4 4 4 4 6 8 8 11 8 6 9 7 9 8 6 9 8 7 9
2 3 5 6 11 8 15 20 14 8 7 10 8 7 8 11 10 13 12 12 12 13 14 13 12 12 9 5 4 4 4 3 3 4 6 6 7 9 9 5 5 8 17 12 11 8 10 7 4
7 10 10 7 11 7 12 17 10 4 7 6 9 5 11 10 10 11 12 14 16 14 14 14 12 12 10 6 4 2 2 3 2 4 5 6 7 8 8 8 5 6 7 14 19 12 7 4 7
10 8 12 11 6 6 7 13 10 8 8 8 13 5 9 12 13 13 15 14 13 15 14 13 12 10 9 8 4 3 2 2 3 5 3 5 5 4 5 5 5 6 5 8 7 6 8 5 2
9 9 11 9 4 10 5 14 17 8 14 15 15 15 14 15 15 13 13 14 14 12 12 13 13 13 11 11 8 9 4 3 3 6 7 6 6 5 4 5 6 7 6 6 7 7 10 9 11
8 8 11 13 4 5 5 3 6 8 9 10 12 14 14 12 12 11 10 9 10 10 11 10 11 12 13 13 12 8 7 4 5 6 9 9 6 5 7 5 5 6 6 7 8 10 9 9 13
6 4 0 3 2 6 12 9 5 3 1 8 11 14 15 12 12 12 11 10 8 9 10 11 13 13 14 13 12 10 9 10 8 8 8 7 7 8 6 7 6 6 7 7 7 9 10 10 12
5 3 3 3 1 6 2 1 1 6 8 8 9 8 11 9 7 9 11 12 12 12 12 14 14 14 14 13 10 11 12 10 10 11 9 11 9 9 10 11 10 9 10 10 9 10 11 10 11
7 8 6 5 4 5 4 7 4 10 11 11 9 10 8 6 6 9 10 10 13 15 13 12 12 11 12 14 17 14 14 9 8 9 10 10 9 9 12 11 12 13 12 12 13 11 10 10 11
3 3 3 2 1 1 5 1 4 9 9 9 8 6 7 8 4 3 6 8 9 10 12 13 13 14 12 13 12 13 13 13 11 12 10 8 11 10 12 12 12 13 13 13 13 12 14 13 10
6 8 4 3 3 6 5 5 5 16 14 14 8 7 5 6 5 3 4 8 7 6 7 8 9 9 10 11 11 12 13 13 11 11 11 12 11 12 13 12 12 12 12 13 13 12 13 14 11
3 3 3 5 4 4 3 6 6 16 17 15 12 8 7 7 5 5 7 5 4 5 6 9 9 10 11 12 12 12 11 13 12 11 11 11 12 12 13 12 13 13 14 13 13 14 15 17 16
3 7 7 5 6 5 3 7 4 7 14 16 13 10 8 7 5 5 6 8 8 9 11 10 11 11 12 13 12 11 12 13 12 11 12 12 12 12 13 13 13 13 13 13 13 16 15 15 16
Wind_Direction
318 324 68 42 48 59 271 264 270 314 310 262 302 156 158 128 165 209 289 111 117 140 151 166 166 158 150 151 151 142 139 138 137 136 137 137 134 134 133 135 138 141 144 150 152 150 147 140 134
323 89 43 78 86 48 276 255 295 247 274 327 336 64 38 61 72 123 111 138 143 145 151 166 174 163 156 155 162 158 147 143 144 144 143 144 142 141 141 141 144 147 151 155 155 153 150 140 146
282 31 85 90 100 180 231 257 292 311 287 286 290 71 92 22 1 176 343 136 138 155 162 166 171 169 163 161 163 166 157 148 151 150 148 148 148 146 146 146 147 151 153 154 153 151 141 139 151
54 12 29 95 208 252 239 304 303 310 319 225 175 70 36 267 211 199 115 134 140 159 168 170 170 170 169 167 171 173 169 161 157 156 155 155 153 152 151 152 154 157 158 161 162 159 153 154 163
38 55 52 28 235 250 291 271 316 326 336 330 353 349 44 348 2 80 119 148 156 166 171 164 178 178 176 175 177 179 175 174 169 166 162 161 159 158 158 159 162 163 165 165 162 159 162 163 167
48 96 38 250 241 338 285 296 319 2 335 332 24 39 272 300 315 185 159 170 175 168 162 166 177 180 182 182 181 183 176 179 180 175 172 168 171 170 168 167 169 168 165 163 164 164 169 171 172
112 90 233 272 266 351 248 324 34 342 340 356 312 83 292 316 242 211 192 156 170 163 156 168 178 186 181 180 187 185 184 181 186 186 185 182 177 181 177 178 174 170 173 173 174 172 172 173 177
99 95 23 269 282 276 322 38 324 19 304 313 29 45 259 239 261 211 151 129 140 160 157 166 173 177 184 195 185 183 186 186 194 196 194 192 182 185 185 183 182 180 177 181 181 181 179 181 181
109 65 198 250 254 249 336 7 319 302 285 310 304 18 303 332 57 14 353 58 149 185 200 164 176 193 190 191 205 192 187 188 199 209 206 196 204 187 186 189 187 188 189 184 188 186 186 185 191
108 132 216 225 265 276 290 307 304 313 292 290 318 300 348 6 354 244 262 250 239 221 219 191 187 190 192 184 173 191 210 201 192 188 209 213 227 202 192 193 191 191 194 194 192 194 189 182 181
173 194 230 259 278 298 293 297 238 228 267 239 279 276 301 218 249 260 235 220 231 232 205 206 199 184 178 199 172 168 192 209 206 196 193 208 217 220 203 201 208 204 195 190 197 193 202 200 178
300 246 233 284 305 325 304 284 278 200 248 238 249 258 288 289 241 229 243 250 154 204 242 227 187 183 184 167 188 177 183 193 213 214 204 199 205 219 213 211 190 194 196 196 191 199 204 206 200
221 257 310 300 286 263 265 260 265 259 277 258 255 256 250 252 255 271 236 38 96 101 325 228 155 170 176 194 176 182 216 203 203 207 215 208 210 220 215 213 181 177 180 196 196 200 211 214 209
314 318 302 290 286 270 268 278 45 295 297 305 302 286 266 237 242 241 246 143 118 111 86 66 57 72 133 104 107 189 199 176 343 334 284 244 232 221 203 201 206 195 181 190 203 206 212 216 211
299 316 321 256 268 269 339 319 270 292 335 307 306 301 290 269 264 227 159 156 132 101 104 92 82 68 67 69 60 50 316 359 81 283 313 270 246 240 235 230 214 210 194 184 186 203 215 219 220
343 9 4 292 328 295 44 280 318 317 333 328 322 322 314 282 278 175 117 100 71 90 73 59 57 66 59 55 52 41 48 45 39 310 280 308 290 274 246 287 269 261 228 208 211 203 203 216 217
323 260 234 301 284 313 247 294 294 317 313 312 314 318 327 345 15 56 84 84 66 62 63 54 39 38 41 37 42 53 50 39 36 38 24 354 350 289 273 236 248 256 268 239 220 214 202 213 221
231 223 257 266 305 319 298 292 306 309 316 282 310 316 329 56 50 29 31 43 54 50 54 51 40 31 18 18 21 45 80 44 20 26 30 23 13 4 325 267 280 285 314 265 240 228 214 206 211
330 264 253 267 278 286 277 283 294 286 306 322 299 315 83 76 61 54 35 27 30 44 49 46 35 21 27 9 359 9 13 347 40 49 21 31 8 354 346 360 341 254 233 259 250 234 222 212 181
260 273 275 268 259 255 285 287 286 253 268 268 290 327 126 117 87 77 61 45 34 33 36 29 27 22 16 15 3 347 298 299 351 40 7 31 15 349 346 337 322 278 296 295 260 236 231 226 182
249 255 271 267 267 239 271 290 304 310 280 8 6 22 83 71 75 58 46 47 47 33 25 27 16 8 8 0 350 313 311 9 20 3 351 355 342 336 305 297 294 289 263 264 278 244 228 235 234
255 247 264 293 323 290 102 300 301 352 39 44 38 48 56 59 55 48 41 39 34 29 32 18 15 2 4 2 9 27 20 346 347 322 314 328 327 317 313 309 312 308 304 292 285 285 249 228 234
248 241 274 292 269 308 178 221 253 40 49 54 61 62 58 63 66 54 43 40 34 24 21 22 14 0 357 357 5 2 347 320 323 322 316 321 325 323 315 300 295 306 310 300 290 286 273 244 233
246 289 82 23 81 276 288 180 279 12 144 92 63 62 60 40 49 47 35 29 21 21 18 16 13 3 353 351 355 341 336 337 338 327 321 324 322 322 316 315 309 296 288 287 294 294 292 275 231
177 141 273 311 81 237 240 237 213 133 102 110 93 69 62 39 35 44 27 16 8 7 13 12 4 0 349 342 329 342 337 332 324 326 322 321 317 317 315 316 308 300 295 289 280 272 272 272 268
189 168 173 234 217 262 321 253 240 145 141 139 144 130 109 78 42 29 11 18 8 6 6 7 356 345 338 344 351 343 336 328 319 322 321 309 306 303 300 298 297 297 293 288 284 281 274 264 259
184 163 195 115 290 267 224 185 221 169 176 186 171 163 156 147 113 60 14 28 15 355 347 354 353 345 339 349 340 336 331 331 322 319 312 303 300 299 299 299 290 289 285 281 278 273 270 269 262
157 163 80 7 246 240 241 235 230 192 200 198 199 201 172 138 124 94 36 32 12 345 333 350 338 331 339 337 340 340 334 333 328 323 321 316 309 307 302 301 297 290 281 276 272 269 265 259 258
145 189 86 137 169 214 287 254 203 196 197 193 194 181 159 120 101 52 35 23 1 357 351 353 333 348 351 348 338 340 338 345 344 339 331 325 319 318 311 311 305 302 292 279 263 255 256 254 254
180 190 156 157 223 238 184 259 247 193 165 178 185 143 117 95 67 43 18 6 5 5 1 349 352 356 357 347 344 343 347 351 348 344 342 339 337 331 328 323 320 315 307 306 293 274 257 248 245